Regional Weather Roundup
Issued by NWS Sioux Falls, SD

Home | Current Version | Previous Version | Text Only | Print | Product List | Glossary Off
Versions: 1 2 3 4 5 6 7 8 9 10 11 12 13 14 15 16 17 18 19 20 21 22 23 24 25 26 27 28 29 30 31 32 33 34 35 36 37 38 39 40 41 42 43 44 45 46 47 48 49 50

000
ASUS43 KFSD 201910
RWRFSD

WEATHER ROUNDUP FOR SE SOUTH DAKOTA/SW MINNESOTA/NW IOWA
NATIONAL WEATHER SERVICE SIOUX FALLS SD
100 PM CST MON FEB 20 2017

NOTE: "FAIR" INDICATES FEW OR NO CLOUDS BELOW 12,000 FEET WITH NO
SIGNIFICANT WEATHER AND OR OBSTRUCTIONS TO VISIBILITY.


SDZ038>040-050-052>070-202000-
SOUTHEAST SOUTH DAKOTA

CITY           SKY/WX    TMP DP  RH WIND       PRES   REMARKS
BROOKINGS      CLOUDY    54  52  93 SW10      29.61F FOG
CHAMBERLAIN    MOSUNNY   54  45  72 NW18G26   29.77R
HURON          MOSUNNY   53  43  68 N23G33    29.66F
MADISON        CLOUDY    52  52 100 W14G20    29.64S
MITCHELL       CLOUDY    54  43  66 NW15      29.70R
SIOUX FALLS    CLOUDY    55  50  83 W15G22    29.65F
WINNER         FAIR      58  42  55 NW24G30   29.79R
YANKTON        CLOUDY   N/A N/A N/A W23       29.71R
$$

MNZ071-072-080-081-089-090-097-098-202000-
SOUTHWEST MINNESOTA

CITY           SKY/WX    TMP DP  RH WIND       PRES   REMARKS
FAIRMONT       LGT RAIN  54  53  97 S15       29.69F FOG
JACKSON        LGT RAIN  52  52 100 S14       29.68F
LUVERNE        LGT RAIN  54  52  94 SW10      29.67F
MARSHALL       CLOUDY    57  54  89 SW15      29.62F
MONTEVIDEO     DRIZZLE   54  54 100 S7        29.64S
PIPESTONE      CLOUDY    55  52  88 SW12      29.66R FOG
REDWOOD FALLS  LGT RAIN  54  52  93 S10       29.65F FOG
TRACY          LGT RAIN  55  55  99 S12       29.62F
WINDOM         RAIN      54  54 100 S12       29.66F
WORTHINGTON    LGT RAIN  55  54  94 S15       29.67F FOG
$$

IAZ001>003-012>014-020>022-031-032-NEZ013-014-SDZ071-202000-
NORTHWEST IOWA

CITY           SKY/WX    TMP DP  RH WIND       PRES   REMARKS
CHEROKEE       LGT RAIN  57  57 100 SW13      29.70S
DENISON        CLOUDY    57  57 100 S14G22    29.71R FOG
ESTHERVILLE    LGT RAIN  53  53 100 S15       29.68F FOG
LE MARS        CLOUDY    59  57  94 S10       29.69S FOG
SHELDON        PTSUNNY   57  57 100 SW16      29.67S FOG
SIOUX CITY     CLOUDY    61  57  87 SW14      29.71S
SPENCER        LGT RAIN  55  54  96 S12       29.69F FOG
STORM LAKE     CLOUDY    57  55  94 S15       29.70F FOG
$$

ABBREVIATIONS USED IN REMARKS
   TC - TEMPERATURE IN CELSIUS
  WCI - WIND CHILL INDEX
   HX - HEAT INDEX
  VSB - VISIBILITY




USA.gov is the U.S. government's official web portal to all federal, state and local government web resources and services.